Voltar ao catálogo

STARLINK-36644

AtivoComunicaçõesVLEO
NORAD 67821·PAYLOAD·🇺🇸 United States

Lançado Feb 16, 2026 de Vandenberg Space Force Base

Loading…

Próximas Passagens (próximas 24 horas)

TLE

AtualizadoSource: CelesTrak SupGP

Época: Sep 15, 2026, 03:14 UTC

1 67821C 26033A   26258.13520833 -.00012190  00000+0 -44142-3 0  2586
2 67821  43.0025 277.0929 0001282 264.4550 256.7830 15.27591957    18

Acompanhe STARLINK-36644 em tempo real com AllMySat

Download on the App Store